Clarion, IA

2:56 AM CDT on August 20, 2017 (GMT -0500)
Clarion Municipal

Weather History for KCAV - May, 2013

Change the Weather History Date:

Monday, May 27, 2013

  Actual Average Record
Temperature  
Mean Temperature 60 °F -  
Max Temperature 66 °F 74 °F 96 °F (2012)
Min Temperature 53 °F 52 °F 34 °F (1971)
Degree Days  
Heating Degree Days 6    
Growing Degree Days 10 (Base 50)    
Moisture  
Dew Point 59 °F    
Average Humidity 95    
Maximum Humidity 100    
Minimum Humidity 88    
Precipitation  
Precipitation 0.96 in - - ()
Sea Level Pressure  
Sea Level Pressure 29.82 in    
Wind  
Wind Speed 14 mph (ESE)    
Max Wind Speed 41 mph    
Max Gust Speed 50 mph    
Visibility 6 miles    
Events Rain    
Averages and records for this station are not official NWS values.
T = Trace of Precipitation, MM = Missing Value Source: NWS Daily Summary

Daily Weather History Graph

Daily Weather History Graph

Search for Another Location

Airport or City:

Trip Planner

Search our weather history database for the weather conditions in past years. The results will help you decide how hot, cold, wet, or windy it might be!

Date:

Astronomy

May. 27, 2013 Rise Set
Actual Time 5:42 AM CDT 8:42 PM CDT
Civil Twilight 5:08 AM CDT 9:16 PM CDT
Nautical Twilight 4:25 AM CDT 9:59 PM CDT
Astronomical Twilight 3:34 AM CDT 10:50 PM CDT
Moon 11:20 PM CDT (5/27) 8:21 AM CDT (5/27)
Length of Visible Light 16h 08m
Length of Day
15h 00m
Waning Gibbous, 91% of the Moon is Illuminated
May 27
Waning Gibbous
May 31
Last Quarter
Jun 8
New
Jun 16
First Quarter
Jun 23
Full

Hourly Weather History & Observations

Time (CDT) Temp. Dew Point Humidity Pressure Visibility Wind Dir Wind Speed Gust Speed Precip Events Conditions
12:15 AM 53.6 °F 53.6 °F 100% 30.02 in 2.5 mi ESE 18.4 mph - N/A Rain Light Rain
12:35 AM 53.6 °F 53.6 °F 100% 29.99 in 2.5 mi ESE 16.1 mph 24.2 mph N/A   Overcast
12:55 AM 53.6 °F 53.6 °F 100% 30.00 in 3.0 mi ESE 13.8 mph 21.9 mph 0.15 in Rain Light Rain
1:15 AM 53.6 °F 53.6 °F 100% 30.00 in 3.0 mi ESE 13.8 mph - N/A   Light Drizzle
1:35 AM 53.6 °F 53.6 °F 100% 29.99 in 3.0 mi ESE 16.1 mph - N/A   Light Drizzle
1:55 AM 55.4 °F 53.6 °F 94% 29.98 in 3.0 mi SE 16.1 mph - N/A   Overcast
2:15 AM 55.4 °F 53.6 °F 94% 29.97 in - SE 13.8 mph - N/A   Overcast
2:35 AM 55.4 °F 53.6 °F 94% 29.97 in 2.0 mi SE 16.1 mph - N/A   Overcast
2:55 AM 55.4 °F 53.6 °F 94% 29.94 in 1.0 mi ESE 17.3 mph - 0.05 in   Overcast
3:15 AM 55.4 °F 53.6 °F 94% 29.92 in 1.8 mi ESE 17.3 mph 23.0 mph N/A   Overcast
3:35 AM 55.4 °F 53.6 °F 94% 29.90 in 2.0 mi ESE 18.4 mph - N/A   Overcast
3:55 AM 55.4 °F 53.6 °F 94% 29.75 in 1.5 mi East 41.4 mph 49.5 mph 0.23 in Rain Light Rain
4:15 AM 55.4 °F 55.4 °F 100% 29.81 in 6.0 mi ESE 24.2 mph 32.2 mph N/A   Light Drizzle
4:35 AM 55.4 °F 55.4 °F 100% 29.84 in 8.0 mi SE 25.3 mph 33.4 mph N/A   Mostly Cloudy
4:55 AM 55.4 °F 55.4 °F 100% 29.95 in 9.0 mi SW 4.6 mph 16.1 mph 0.01 in   Light Drizzle
5:15 AM 55.4 °F 55.4 °F 100% 29.98 in 5.0 mi NW 6.9 mph 13.8 mph N/A Rain Light Rain
5:35 AM 55.4 °F 55.4 °F 100% 29.99 in 3.0 mi Calm Calm - N/A Rain Rain
5:55 AM 55.4 °F 55.4 °F 100% 29.95 in 2.0 mi East 8.1 mph - 0.27 in Rain Rain
6:15 AM 55.4 °F 55.4 °F 100% 29.89 in 2.0 mi East 18.4 mph - N/A Rain Rain
6:35 AM 55.4 °F 55.4 °F 100% 29.79 in 1.8 mi East 26.5 mph - N/A Rain Light Rain
6:55 AM 55.4 °F 55.4 °F 100% 29.72 in 1.8 mi East 35.7 mph 42.6 mph 0.20 in Rain Light Rain
7:15 AM 57.2 °F 55.4 °F 94% 29.76 in 4.0 mi ESE 24.2 mph 32.2 mph N/A   Scattered Clouds
7:35 AM 57.2 °F 55.4 °F 94% 29.77 in 7.0 mi SE 15.0 mph 31.1 mph N/A   Scattered Clouds
7:55 AM 57.2 °F 55.4 °F 94% 29.79 in 10.0 mi SE 11.5 mph 23.0 mph N/A   Overcast
8:15 AM 57.2 °F 55.4 °F 94% 29.80 in 10.0 mi Variable 5.8 mph 12.7 mph N/A   Overcast
8:35 AM 57.2 °F 55.4 °F 94% 29.83 in 10.0 mi NNE 8.1 mph - N/A   Overcast
8:55 AM 57.2 °F 55.4 °F 94% 29.85 in 10.0 mi ENE 4.6 mph - N/A   Overcast
9:15 AM 59.0 °F 57.2 °F 94% 29.85 in 10.0 mi NE 8.1 mph - N/A   Overcast
9:35 AM 57.2 °F 57.2 °F 100% 29.84 in 10.0 mi ENE 10.4 mph - N/A   Overcast
9:55 AM 57.2 °F 57.2 °F 100% 29.82 in 10.0 mi ENE 12.7 mph - N/A   Partly Cloudy
10:15 AM 59.0 °F 57.2 °F 94% 29.81 in 8.0 mi East 11.5 mph - N/A   Clear
10:35 AM 60.8 °F 59.0 °F 94% 29.79 in 10.0 mi East 16.1 mph - N/A   Mostly Cloudy
10:55 AM 62.6 °F 60.8 °F 94% 29.77 in 10.0 mi East 21.9 mph - N/A   Scattered Clouds
11:15 AM 62.6 °F 60.8 °F 94% 29.78 in 10.0 mi East 24.2 mph - N/A   Scattered Clouds
11:35 AM 60.8 °F 59.0 °F 94% 29.78 in 10.0 mi East 21.9 mph - N/A   Overcast
11:55 AM 60.8 °F 59.0 °F 94% 29.78 in 7.0 mi East 23.0 mph - N/A   Overcast
12:15 PM 60.8 °F 59.0 °F 94% 29.78 in 5.0 mi East 17.3 mph - N/A   Overcast
12:35 PM 62.6 °F 59.0 °F 88% 29.78 in 8.0 mi East 15.0 mph 23.0 mph N/A   Overcast
12:55 PM 64.4 °F 60.8 °F 88% 29.78 in 9.0 mi ESE 15.0 mph 21.9 mph N/A   Overcast
1:15 PM 64.4 °F 60.8 °F 88% 29.78 in 9.0 mi ESE 17.3 mph - N/A   Mostly Cloudy
1:35 PM 64.4 °F 60.8 °F 88% 29.78 in 10.0 mi ESE 17.3 mph 24.2 mph N/A   Overcast
1:55 PM 64.4 °F 60.8 °F 88% 29.79 in 10.0 mi ESE 16.1 mph 27.6 mph N/A   Overcast
2:15 PM 62.6 °F 59.0 °F 88% 29.80 in 8.0 mi ESE 19.6 mph 25.3 mph N/A   Overcast
2:35 PM 62.6 °F 60.8 °F 94% 29.79 in 5.0 mi SE 20.7 mph - N/A   Light Drizzle
2:55 PM 62.6 °F 60.8 °F 94% 29.79 in 6.0 mi ESE 18.4 mph - N/A   Overcast
3:15 PM 62.6 °F 60.8 °F 94% 29.78 in 1.8 mi ESE 16.1 mph 25.3 mph N/A Rain Light Rain
3:35 PM 62.6 °F 60.8 °F 94% 29.78 in 3.0 mi ESE 16.1 mph - N/A   Overcast
3:55 PM 62.6 °F 60.8 °F 94% 29.78 in 3.0 mi SE 13.8 mph - 0.05 in   Overcast
4:15 PM 62.6 °F 60.8 °F 94% 29.77 in 4.0 mi ESE 9.2 mph 15.0 mph N/A   Overcast
4:35 PM 64.4 °F 60.8 °F 88% 29.76 in 6.0 mi East 3.5 mph - N/A   Overcast
4:55 PM 64.4 °F 62.6 °F 94% 29.76 in 6.0 mi ENE 3.5 mph - N/A   Overcast
5:15 PM 66.2 °F 62.6 °F 88% 29.76 in 8.0 mi NE 5.8 mph - N/A   Overcast
5:35 PM 66.2 °F 62.6 °F 88% 29.76 in 8.0 mi Calm Calm - N/A   Overcast
5:55 PM 66.2 °F 62.6 °F 88% 29.76 in 9.0 mi NE 3.5 mph - N/A   Overcast
6:15 PM 66.2 °F 62.6 °F 88% 29.76 in 9.0 mi Calm Calm - N/A   Overcast
6:35 PM 66.2 °F 62.6 °F 88% 29.76 in 10.0 mi Calm Calm - N/A   Overcast
6:55 PM 66.2 °F 62.6 °F 88% 29.75 in 9.0 mi East 5.8 mph - N/A   Overcast
7:15 PM 66.2 °F 62.6 °F 88% 29.76 in 8.0 mi ENE 3.5 mph - N/A   Overcast
7:35 PM 64.4 °F 62.6 °F 94% 29.76 in - Calm Calm - N/A   Overcast
7:55 PM 66.2 °F 62.6 °F 88% 29.77 in 9.0 mi Calm Calm - N/A   Overcast
8:15 PM 64.4 °F 62.6 °F 94% 29.77 in 9.0 mi SE 3.5 mph - N/A   Overcast
8:35 PM 64.4 °F 62.6 °F 94% 29.77 in 8.0 mi Calm Calm - N/A   Overcast
8:55 PM 64.4 °F 62.6 °F 94% 29.76 in 4.0 mi East 9.2 mph - N/A   Overcast
9:15 PM 64.4 °F 62.6 °F 94% 29.76 in 6.0 mi ESE 8.1 mph - N/A   Overcast
9:35 PM 62.6 °F 62.6 °F 100% 29.75 in 4.0 mi East 8.1 mph - N/A   Overcast
9:55 PM 62.6 °F 62.6 °F 100% 29.76 in 4.0 mi ESE 6.9 mph - N/A   Overcast
10:15 PM 62.6 °F 60.8 °F 94% 29.76 in 3.0 mi East 8.1 mph - N/A   Overcast
10:35 PM 62.6 °F 60.8 °F 94% 29.76 in 3.0 mi East 6.9 mph - N/A   Mostly Cloudy
10:55 PM 62.6 °F 60.8 °F 94% 29.76 in 3.0 mi ENE 6.9 mph - N/A   Mostly Cloudy
11:15 PM 62.6 °F 62.6 °F 100% 29.77 in 3.0 mi ESE 9.2 mph - N/A   Overcast
11:35 PM 62.6 °F 62.6 °F 100% 29.76 in 2.5 mi ESE 9.2 mph - N/A   Overcast
11:55 PM 62.6 °F 62.6 °F 100% 29.75 in 3.0 mi ESE 9.2 mph - N/A   Overcast